Regional Weather Roundup
Issued by NWS

Home | Current Version | Previous Version | Graphics & Text | Print | Product List | Glossary On
Versions: 1 2 3 4 5 6 7 8 9 10 11 12 13 14 15 16 17 18 19 20 21 22 23 24 25 26 27 28 29 30 31 32 33 34 35 36 37 38 39 40 41 42 43 44 45 46 47 48 49 50
000
ASUS43 KOAX 012010
RWRNE

WEATHER ROUNDUP FOR NEBRASKA
NATIONAL WEATHER SERVICE OMAHA NE
300 PM CDT FRI AUG 01 2014

NOTES: SATELLITE DATA IS BEING USED TO AUGMENT CLOUD COVER ABOVE
       12000 FEET.
       "FAIR" INDICATES FEW OR NO CLOUDS BELOW 12,000 FEET WITH NO
       SIGNIFICANT WEATHER AND/OR OBSTRUCTIONS TO VISIBILITY.

  * THESE STATIONS DO NOT REPORT WEATHER SUCH AS RAIN...SNOW OR FOG.

NEZ001>004-019>022-054>056-012100-
NEBRASKA PANHANDLE

CITY           SKY/WX    TMP DP  RH WIND       PRES   REMARKS
SCOTTSBLUFF    SUNNY     88  39  17 VRB5      30.18F
ALLIANCE       PTSUNNY   89  35  14 N7        30.16F
CHADRON        MOSUNNY   92  39  15 S8        30.09F
KIMBALL        SUNNY     82  42  24 S9        30.23F
SIDNEY         PTSUNNY   85  39  19 NE3       30.21F
$$

NEZ057>060-069>072-079>082-012100-
SOUTHWEST NEBRASKA

CITY           SKY/WX    TMP DP  RH WIND       PRES   REMARKS
NORTH PLATTE   LGT RAIN  76  54  46 SE14G28   30.12F
IMPERIAL       SUNNY     89  43  20 N7        30.15F
LEXINGTON      SUNNY     87  57  36 E5        30.12F
MCCOOK         SUNNY     89  50  26 E7        30.12F
OGALLALA       SUNNY     87  42  20 SE7       30.14F
$$

NEZ005>010-023>029-035>040-094-012100-
NORTH CENTRAL NEBRASKA

CITY           SKY/WX    TMP DP  RH WIND       PRES   REMARKS
VALENTINE      SUNNY     91  48  22 N7        30.09F
AINSWORTH      SUNNY     86  53  32 E8        30.11F
BROKEN BOW     SUNNY     87  59  38 SE9       30.12F
O`NEILL        SUNNY     83  57  40 E8        30.13S
ORD            MOSUNNY   84  58  40 MISG      30.11F
THEDFORD       SUNNY     90  49  24 SW3       30.13F
$$

NEZ041-046>049-061>064-073>077-083>087-012100-
SOUTH CENTRAL NEBRASKA

CITY           SKY/WX    TMP DP  RH WIND       PRES   REMARKS
GRAND ISLAND   SUNNY     84  58  40 NE7       30.12F
AURORA         SUNNY     82  59  45 NE8       30.12S
HASTINGS       SUNNY     83  57  41 NE8       30.12F
HEBRON         MOSUNNY   83  58  42 N14G22    30.08F
HOLDREGE       SUNNY     83  56  39 N6        30.13F
KEARNEY *      SUNNY     84  57  39 NE8       30.13F
YORK           SUNNY     81  63  54 NE10      30.12S
$$

NEZ011>018-030>034-042>045-012100-
NORTHEAST NEBRASKA

CITY           SKY/WX    TMP DP  RH WIND       PRES   REMARKS
NORFOLK        SUNNY     81  55  40 E6        30.11F
ALBION         SUNNY     81  53  38 NE8       30.13S
BLAIR          PTSUNNY   80  60  51 E6        30.10S
COLUMBUS *     SUNNY     81  63  54 E6        30.12S
FREMONT        CLOUDY    81  61  49 E9        30.11S
TEKAMAH        MOSUNNY   84  59  42 E7        30.09F
$$

NEZ050>053-065>068-078-088>093-012100-
SOUTHEAST NEBRASKA

CITY           SKY/WX    TMP DP  RH WIND       PRES   REMARKS
LINCOLN        CLOUDY    81  61  50 E7        30.10R
OMAHA EPPLEY   MOSUNNY   83  59  44 VRB5      30.09S
BEATRICE       SUNNY     82  65  56 E7        30.07S
FALLS CITY     CLOUDY    82  64  54 E12       30.06F
NEBRASKA CITY  MOSUNNY   80  64  56 E12       30.09S
PLATTSMOUTH    MOSUNNY   83  60  46 E7        30.10S
$$

NEZ044-045-051>053-067-012100-
OMAHA AREA

CITY           SKY/WX    TMP DP  RH WIND       PRES   REMARKS
OMAHA EPPLEY   MOSUNNY   83  59  44 VRB5      30.09S
BLAIR          PTSUNNY   80  60  51 E6        30.10S
FREMONT        CLOUDY    81  61  49 E9        30.11S
MILLARD        PTSUNNY   82  60  48 E7        30.09S
OFFUTT AFB     PTSUNNY   81  63  53 E6        30.09S
PLATTSMOUTH    MOSUNNY   83  60  46 E7        30.10S
WAHOO          CLOUDY    83  60  46 E9        30.10S
$$


USA.gov is the U.S. government's official web portal to all federal, state and local government web resources and services.